Time,TemperatureF,DewpointF,PressureIn,WindDirection,WindDirectionDegrees,WindSpeedMPH,WindSpeedGustMPH,Humidity,HourlyPrecipIn,Conditions,Clouds,dailyrainin,SoftwareType,DateUTC
2013-08-14 00:12:00,66.0,63.0,30.01,SE,134,3.0,8.0,90,0.00,,,0.37,,2013-08-14 05:12:00,
2013-08-14 00:22:00,66.0,63.0,30.03,SSE,148,2.0,5.0,90,0.00,,,0.37,,2013-08-14 05:22:00,
2013-08-14 00:42:00,66.0,63.0,30.03,SE,142,2.0,4.0,91,0.00,,,0.37,,2013-08-14 05:42:00,
2013-08-14 00:51:00,65.0,62.0,30.03,ESE,103,0.0,3.0,91,0.00,,,0.37,,2013-08-14 05:51:00,
2013-08-14 01:11:00,65.0,63.0,30.03,ESE,102,0.0,2.0,92,0.00,,,0.37,,2013-08-14 06:11:00,
2013-08-14 01:21:00,65.0,63.0,30.03,SSE,148,2.0,4.0,93,0.00,,,0.37,,2013-08-14 06:21:00,
2013-08-14 01:42:00,65.0,63.0,30.03,SE,146,2.0,5.0,93,0.00,,,0.37,,2013-08-14 06:42:00,
2013-08-14 01:52:00,64.0,62.0,30.03,SE,141,3.0,6.0,93,0.00,,,0.37,,2013-08-14 06:52:00,
2013-08-14 02:11:00,64.0,62.0,30.02,SE,137,3.0,6.0,94,0.00,,,0.37,,2013-08-14 07:11:00,
2013-08-14 02:21:00,64.0,62.0,30.02,SSE,153,4.0,7.0,94,0.00,,,0.37,,2013-08-14 07:21:00,
2013-08-14 02:42:00,65.0,63.0,30.02,SSE,163,2.0,9.0,94,0.00,,,0.37,,2013-08-14 07:42:00,
2013-08-14 02:52:00,65.0,63.0,30.02,SSE,150,4.0,7.0,93,0.00,,,0.37,,2013-08-14 07:52:00,
2013-08-14 03:11:00,65.0,63.0,30.02,SE,138,3.0,8.0,93,0.00,,,0.37,,2013-08-14 08:11:00,
2013-08-14 03:21:00,65.0,63.0,30.01,South,180,3.0,7.0,93,0.00,,,0.37,,2013-08-14 08:21:00,
2013-08-14 03:42:00,64.0,62.0,30.00,SE,140,3.0,8.0,93,0.00,,,0.37,,2013-08-14 08:42:00,
2013-08-14 03:52:00,64.0,62.0,30.00,SE,128,4.0,11.0,93,0.00,,,0.37,,2013-08-14 08:52:00,
2013-08-14 04:11:00,64.0,62.0,30.00,SSW,205,1.0,4.0,93,0.00,,,0.37,,2013-08-14 09:11:00,
2013-08-14 04:21:00,64.0,62.0,30.01,ESE,115,1.0,5.0,92,0.00,,,0.37,,2013-08-14 09:21:00,
2013-08-14 04:43:00,64.0,61.0,30.01,South,182,1.0,6.0,91,0.00,,,0.37,,2013-08-14 09:43:00,
2013-08-14 04:53:00,64.0,61.0,30.01,SE,136,1.0,5.0,91,0.00,,,0.37,,2013-08-14 09:53:00,
2013-08-14 05:12:00,64.0,61.0,30.00,SE,131,2.0,9.0,91,0.00,,,0.37,,2013-08-14 10:12:00,
2013-08-14 05:23:00,64.0,62.0,29.99,SE,133,3.0,9.0,92,0.00,,,0.37,,2013-08-14 10:23:00,
2013-08-14 05:42:00,63.0,61.0,29.99,ESE,117,4.0,10.0,93,0.00,,,0.37,,2013-08-14 10:42:00,
2013-08-14 05:52:00,63.0,61.0,30.00,South,171,3.0,7.0,93,0.00,,,0.37,,2013-08-14 10:52:00,
2013-08-14 06:11:00,63.0,61.0,30.00,SSW,197,2.0,7.0,93,0.00,,,0.37,,2013-08-14 11:11:00,
2013-08-14 06:21:00,63.0,61.0,30.01,SSW,195,0.0,3.0,93,0.00,,,0.37,,2013-08-14 11:21:00,
2013-08-14 06:42:00,63.0,61.0,30.01,SSW,195,0.0,1.0,92,0.00,,,0.37,,2013-08-14 11:42:00,
2013-08-14 06:52:00,63.0,61.0,30.00,SSE,155,1.0,4.0,92,0.00,,,0.37,,2013-08-14 11:52:00,
2013-08-14 07:11:00,63.0,61.0,30.01,SE,142,0.0,4.0,92,0.00,,,0.37,,2013-08-14 12:11:00,
2013-08-14 07:21:00,63.0,61.0,30.01,SE,142,0.0,2.0,92,0.00,,,0.37,,2013-08-14 12:21:00,
2013-08-14 07:42:00,63.0,61.0,30.01,SE,142,1.0,4.0,93,0.00,,,0.37,,2013-08-14 12:42:00,
2013-08-14 07:52:00,63.0,61.0,30.01,SE,139,1.0,5.0,93,0.00,,,0.37,,2013-08-14 12:52:00,
2013-08-14 08:11:00,63.0,61.0,30.01,SE,144,3.0,6.0,94,0.00,,,0.37,,2013-08-14 13:11:00,
2013-08-14 08:22:00,63.0,61.0,30.01,SE,137,3.0,9.0,93,0.00,,,0.37,,2013-08-14 13:22:00,
2013-08-14 08:52:00,63.0,61.0,30.00,SSE,155,5.0,11.0,93,0.00,,,0.37,,2013-08-14 13:52:00,
2013-08-14 09:11:00,63.0,61.0,30.01,SE,136,3.0,11.0,93,0.00,,,0.37,,2013-08-14 14:11:00,
2013-08-14 09:21:00,64.0,62.0,30.01,SE,135,3.0,9.0,92,0.00,,,0.02,,2013-08-14 14:21:00,
2013-08-14 09:42:00,64.0,61.0,30.01,SE,134,4.0,9.0,91,0.00,,,0.02,,2013-08-14 14:42:00,
2013-08-14 09:52:00,64.0,61.0,30.01,SE,142,4.0,8.0,90,0.00,,,0.02,,2013-08-14 14:52:00,
2013-08-14 10:11:00,65.0,62.0,30.00,South,177,5.0,13.0,90,0.00,,,0.02,,2013-08-14 15:11:00,
2013-08-14 10:22:00,65.0,62.0,29.99,SSE,156,5.0,11.0,89,0.00,,,0.00,,2013-08-14 15:22:00,
2013-08-14 10:43:00,66.0,63.0,29.99,SSE,163,5.0,12.0,90,0.00,,,0.00,,2013-08-14 15:43:00,
2013-08-14 10:56:00,67.0,63.0,29.99,South,182,4.0,11.0,86,0.00,,,0.00,,2013-08-14 15:56:00,
2013-08-14 11:13:00,68.0,62.0,29.99,SE,129,6.0,11.0,82,0.00,,,0.00,,2013-08-14 16:13:00,
2013-08-14 11:28:00,68.0,62.0,29.99,SE,137,6.0,11.0,82,0.00,,,0.00,,2013-08-14 16:28:00,
2013-08-14 11:43:00,69.0,62.0,29.99,SE,136,7.0,13.0,79,0.00,,,0.00,,2013-08-14 16:43:00,
2013-08-14 11:59:00,70.0,62.0,29.99,ESE,123,3.0,12.0,77,0.00,,,0.00,,2013-08-14 16:59:00,
2013-08-14 12:20:00,71.0,63.0,29.98,South,177,3.0,10.0,75,0.00,,,0.00,,2013-08-14 17:20:00,
2013-08-14 12:29:00,72.0,63.0,29.98,SSW,202,5.0,10.0,73,0.00,,,0.00,,2013-08-14 17:29:00,
2013-08-14 12:44:00,72.0,63.0,29.98,ESE,117,4.0,12.0,73,0.00,,,0.00,,2013-08-14 17:44:00,
2013-08-14 12:55:00,72.0,64.0,29.98,SSW,212,5.0,15.0,75,0.00,,,0.00,,2013-08-14 17:55:00,
2013-08-14 13:26:00,71.0,-99.9,29.98,South,171,5.0,11.0,76,0.00,,,0.00,,2013-08-14 18:26:00,
2013-08-14 13:34:00,72.0,64.0,29.98,SSW,198,5.0,11.0,76,0.00,,,0.00,,2013-08-14 18:34:00,
2013-08-14 13:56:00,72.0,64.0,29.98,SW,234,5.0,11.0,76,0.00,,,0.00,,2013-08-14 18:56:00,
2013-08-14 14:13:00,72.0,64.0,29.98,SW,226,5.0,9.0,76,0.00,,,0.00,,2013-08-14 19:13:00,
2013-08-14 14:31:00,73.0,64.0,29.97,SSW,209,6.0,9.0,74,0.00,,,0.00,,2013-08-14 19:31:00,
2013-08-14 14:42:00,74.0,65.0,29.96,SSW,206,5.0,12.0,74,0.00,,,0.00,,2013-08-14 19:42:00,
2013-08-14 14:54:00,74.0,64.0,29.95,South,188,5.0,15.0,71,0.00,,,0.00,,2013-08-14 19:54:00,
2013-08-14 15:12:00,75.0,65.0,29.95,SE,145,3.0,11.0,71,0.00,,,0.00,,2013-08-14 20:12:00,
2013-08-14 15:49:00,75.0,64.0,29.94,SE,146,4.0,12.0,69,0.00,,,0.00,,2013-08-14 20:49:00,
2013-08-14 16:13:00,75.0,64.0,29.93,SE,129,6.0,14.0,69,0.00,,,0.00,,2013-08-14 21:13:00,
2013-08-14 16:24:00,75.0,65.0,29.93,SE,130,7.0,16.0,70,0.00,,,0.00,,2013-08-14 21:24:00,
2013-08-14 16:45:00,75.0,64.0,29.93,SE,132,5.0,14.0,69,0.00,,,0.00,,2013-08-14 21:45:00,
2013-08-14 16:55:00,75.0,64.0,29.92,SE,142,9.0,14.0,69,0.00,,,0.00,,2013-08-14 21:55:00,
2013-08-14 17:13:00,75.0,64.0,29.91,SE,134,3.0,14.0,69,0.00,,,0.00,,2013-08-14 22:13:00,
2013-08-14 17:23:00,75.0,64.0,29.91,SE,144,5.0,15.0,68,0.00,,,0.00,,2013-08-14 22:23:00,
2013-08-14 17:54:00,76.0,63.0,29.90,SSW,207,2.0,10.0,65,0.00,,,0.00,,2013-08-14 22:54:00,
2013-08-14 18:13:00,76.0,65.0,29.90,SW,215,5.0,13.0,68,0.00,,,0.00,,2013-08-14 23:13:00,
2013-08-14 18:25:00,76.0,65.0,29.89,SSW,193,4.0,10.0,68,0.00,,,0.00,,2013-08-14 23:25:00,
2013-08-14 18:46:00,76.0,64.0,29.88,NW,305,2.0,10.0,67,0.00,,,0.00,,2013-08-14 23:46:00,
2013-08-14 18:56:00,75.0,64.0,29.89,SSE,148,3.0,12.0,68,0.00,,,0.00,,2013-08-14 23:56:00,
2013-08-14 19:12:00,75.0,64.0,29.88,SE,135,6.0,12.0,68,0.00,,,0.00,,2013-08-15 00:12:00,
2013-08-14 19:23:00,75.0,65.0,29.89,SE,128,3.0,11.0,70,0.00,,,0.00,,2013-08-15 00:23:00,
2013-08-14 19:43:00,75.0,65.0,29.89,South,188,5.0,13.0,70,0.00,,,0.00,,2013-08-15 00:43:00,
2013-08-14 19:52:00,74.0,64.0,29.88,SE,132,5.0,9.0,70,0.00,,,0.00,,2013-08-15 00:52:00,
2013-08-14 20:16:00,74.0,64.0,29.88,SSE,162,4.0,9.0,71,0.00,,,0.00,,2013-08-15 01:16:00,
2013-08-14 20:22:00,74.0,64.0,29.89,SE,129,2.0,7.0,71,0.00,,,0.00,,2013-08-15 01:22:00,
2013-08-14 20:42:00,74.0,65.0,29.88,SE,135,3.0,6.0,73,0.00,,,0.00,,2013-08-15 01:42:00,
2013-08-14 20:52:00,73.0,65.0,29.88,SE,145,3.0,6.0,75,0.00,,,0.00,,2013-08-15 01:52:00,
2013-08-14 21:11:00,72.0,64.0,29.89,SE,133,3.0,5.0,76,0.00,,,0.00,,2013-08-15 02:11:00,
2013-08-14 21:21:00,72.0,65.0,29.89,SE,133,0.0,5.0,78,0.00,,,0.00,,2013-08-15 02:21:00,
2013-08-14 22:11:00,70.0,64.0,29.89,SSE,148,2.0,5.0,80,0.00,,,0.00,,2013-08-15 03:11:00,
2013-08-14 22:22:00,70.0,64.0,29.90,SE,142,3.0,9.0,80,0.00,,,0.00,,2013-08-15 03:22:00,
2013-08-14 22:43:00,70.0,64.0,29.91,SE,133,3.0,9.0,81,0.00,,,0.00,,2013-08-15 03:43:00,
2013-08-14 22:53:00,70.0,64.0,29.91,SE,131,3.0,6.0,82,0.00,,,0.00,,2013-08-15 03:53:00,
2013-08-14 23:12:00,69.0,64.0,29.91,SE,136,2.0,5.0,83,0.00,,,0.00,,2013-08-15 04:12:00,
2013-08-14 23:23:00,69.0,64.0,29.91,SE,139,1.0,6.0,84,0.00,,,0.00,,2013-08-15 04:23:00,
2013-08-14 23:43:00,68.0,63.0,29.92,SSE,149,1.0,5.0,85,0.00,,,0.00,,2013-08-15 04:43:00,
2013-08-14 23:52:00,68.0,64.0,29.91,ESE,123,0.0,5.0,87,0.00,,,0.00,,2013-08-15 04:52:00,